Total_Precipitation_Accumulation
0.03 0.05 0.05 0.06 0.09 0.09 0.09 0.12 0.15 0.18 0.17 0.19 0.30 0.44 0.64 0.78 0.83 1.06 1.29 1.40 1.44 1.64 2.14 2.58 2.72 2.82 3.21 3.53 3.75 3.66 3.87 4.30 4.58 4.98 5.02 5.25 5.71 6.02 6.11 6.14 6.11 6.00 5.94 5.99
0.06 0.06 0.05 0.05 0.06 0.06 0.06 0.11 0.14 0.17 0.18 0.20 0.36 0.58 0.67 0.78 0.89 1.22 1.47 1.49 1.45 1.64 2.00 2.47 2.71 3.09 3.40 3.52 3.77 3.91 4.07 4.59 5.07 5.65 6.18 6.58 7.01 7.03 7.13 7.05 6.94 6.56 6.37 6.32
0.07 0.05 0.03 0.04 0.04 0.04 0.05 0.07 0.11 0.16 0.21 0.26 0.39 0.73 0.87 0.98 1.08 1.30 1.45 1.41 1.51 1.72 2.05 2.37 2.68 3.06 3.38 3.56 3.81 3.98 4.36 4.99 5.83 6.48 7.00 7.54 7.89 7.62 7.40 7.08 6.91 6.76 6.72 6.67
0.06 0.04 0.04 0.05 0.06 0.05 0.08 0.08 0.08 0.12 0.23 0.37 0.42 0.84 1.19 1.33 1.44 1.45 1.46 1.58 1.72 1.85 2.03 2.29 2.59 2.93 3.24 3.60 3.74 3.98 4.68 5.39 6.05 6.73 7.38 7.94 8.20 8.19 7.98 7.40 6.91 6.54 6.27 5.98
0.07 0.05 0.05 0.06 0.07 0.07 0.09 0.09 0.11 0.14 0.21 0.35 0.42 0.80 1.44 1.76 1.83 1.81 1.83 1.87 1.87 1.85 1.98 2.17 2.43 2.71 2.91 3.31 3.72 4.05 4.75 5.53 6.22 7.03 7.79 8.22 8.38 8.34 7.99 7.24 6.53 5.98 5.60 5.20
0.06 0.06 0.07 0.07 0.06 0.06 0.08 0.11 0.16 0.21 0.30 0.47 0.48 0.79 1.57 2.01 2.17 2.20 2.10 2.09 2.00 1.88 1.85 1.93 2.21 2.42 2.75 3.13 3.60 4.12 4.54 5.25 6.10 6.74 7.27 7.42 7.56 7.53 7.13 6.69 6.18 5.79 5.27 4.71
0.09 0.09 0.08 0.08 0.07 0.07 0.09 0.21 0.43 0.59 0.66 0.61 0.49 0.83 1.58 1.89 1.85 1.94 1.96 2.00 1.96 1.77 1.80 2.06 2.36 2.34 2.66 3.07 3.52 4.03 4.50 5.01 5.68 6.26 6.68 6.82 6.96 6.90 6.43 5.94 5.51 5.07 4.51 4.06
0.17 0.14 0.09 0.07 0.08 0.09 0.10 0.20 0.49 0.75 0.78 0.79 0.76 1.23 1.79 1.91 1.76 1.63 1.71 1.81 1.89 1.89 1.92 2.04 2.21 2.34 2.70 2.99 3.27 3.66 4.03 4.49 4.82 5.13 5.59 5.84 5.99 5.80 5.44 4.98 4.44 4.09 3.73 3.39
0.25 0.21 0.10 0.07 0.08 0.10 0.13 0.18 0.27 0.38 0.46 0.79 1.22 1.59 2.00 1.99 1.88 1.71 1.62 1.67 1.79 1.79 1.91 2.12 2.30 2.48 2.70 3.05 3.50 3.68 3.69 3.96 4.23 4.53 4.74 4.78 4.82 4.69 4.46 4.19 3.83 3.46 3.13 2.83
0.23 0.27 0.13 0.08 0.08 0.11 0.12 0.16 0.23 0.39 0.73 1.04 1.38 2.03 2.43 2.52 2.47 2.32 1.92 1.78 1.72 1.81 1.93 2.10 2.25 2.45 2.56 2.69 3.06 3.36 3.44 3.53 3.64 3.79 3.83 3.74 3.89 3.80 3.72 3.57 3.32 3.02 2.81 2.59
0.25 0.31 0.21 0.13 0.13 0.17 0.18 0.20 0.26 0.40 0.56 1.02 1.53 2.27 2.49 2.80 2.91 2.77 2.37 2.22 2.19 2.22 2.15 2.12 2.10 2.17 2.36 2.48 2.65 2.95 3.19 3.26 3.32 3.44 3.42 3.31 3.43 3.43 3.45 3.32 3.13 3.01 2.93 2.80
0.29 0.35 0.34 0.22 0.18 0.15 0.17 0.22 0.34 0.63 0.70 0.78 1.36 2.44 2.70 2.86 2.80 2.55 2.43 2.34 2.21 2.11 1.96 1.92 1.89 1.94 2.08 2.31 2.59 2.84 3.03 2.97 2.98 3.07 3.22 3.33 3.40 3.35 3.27 3.06 2.92 2.81 2.66 2.51
0.33 0.49 0.74 0.72 0.56 0.34 0.26 0.25 0.33 0.45 0.67 0.88 1.50 2.72 3.13 3.03 2.89 2.57 2.54 2.52 2.38 2.27 2.07 1.94 1.87 1.95 2.04 2.12 2.28 2.53 2.76 2.85 2.80 2.81 2.83 3.02 3.10 3.03 2.97 2.88 2.77 2.65 2.48 2.40
0.34 0.51 0.90 1.39 1.12 0.69 0.46 0.35 0.39 0.58 0.95 1.12 1.47 2.12 2.51 2.65 2.69 2.67 2.80 2.89 2.68 2.42 2.23 2.04 1.99 1.96 1.97 2.06 2.11 2.19 2.36 2.54 2.69 2.77 2.94 3.00 2.95 2.86 2.79 2.66 2.47 2.34 2.25 2.26
0.42 0.60 0.57 0.61 0.60 0.61 0.63 0.56 0.53 0.66 0.80 1.23 1.62 2.05 2.45 2.59 2.58 2.57 2.76 2.64 2.36 2.21 2.08 2.02 2.03 2.11 2.09 2.05 2.11 2.15 2.32 2.37 2.57 2.72 2.74 2.71 2.68 2.65 2.61 2.56 2.42 2.26 2.12 2.01
0.50 0.66 0.65 0.67 0.57 0.64 0.68 0.67 0.70 0.81 0.96 1.27 1.66 2.25 2.55 2.58 2.56 2.55 2.63 2.60 2.41 2.13 1.98 1.97 1.96 2.06 1.98 1.93 1.94 1.99 2.16 2.20 2.29 2.43 2.49 2.42 2.40 2.53 2.57 2.55 2.44 2.29 2.14 2.02
0.63 0.87 1.05 0.99 0.66 0.93 1.27 1.02 1.04 1.15 1.25 1.49 1.95 2.20 2.28 2.42 2.50 2.53 2.60 2.69 2.55 2.30 2.15 2.20 2.28 2.29 2.12 1.95 1.90 2.01 2.11 2.18 2.24 2.25 2.20 2.25 2.27 2.27 2.33 2.25 2.17 2.18 2.20 2.05
0.69 1.03 1.16 1.09 1.25 1.87 1.65 1.00 1.06 1.30 1.44 1.43 1.54 1.68 1.89 2.09 2.21 2.38 2.55 2.72 2.72 2.59 2.56 2.59 2.59 2.38 2.15 2.05 1.99 2.07 2.08 2.13 2.24 2.17 2.03 1.99 2.02 1.99 2.03 2.08 2.09 2.09 2.11 2.03
0.55 1.00 1.33 1.50 1.86 2.04 1.75 1.12 1.07 1.51 1.91 1.56 1.53 1.55 1.58 1.61 1.82 2.30 2.36 2.46 2.63 2.59 2.59 2.57 2.52 2.35 2.12 2.00 1.94 1.94 2.00 1.96 2.00 1.91 1.84 1.76 1.74 1.82 1.87 1.90 2.03 2.06 1.99 1.95
0.58 0.88 1.50 1.82 2.29 2.62 2.26 1.18 0.90 1.49 2.51 1.85 1.61 1.63 1.70 1.91 2.26 2.25 2.00 1.99 2.10 2.12 2.16 2.25 2.28 2.21 2.04 1.89 1.83 1.87 1.90 1.87 1.84 1.83 1.81 1.70 1.67 1.72 1.76 1.78 1.88 1.87 1.89 1.90
1.08 1.23 1.53 1.86 2.35 2.54 1.65 1.05 1.15 2.45 2.97 2.08 1.75 1.74 1.89 2.12 2.22 1.83 1.60 1.62 1.68 1.86 1.89 1.95 2.14 2.17 1.97 1.80 1.78 1.82 1.81 1.78 1.63 1.66 1.75 1.78 1.74 1.72 1.74 1.76 1.80 1.80 1.81 1.88
1.35 1.57 1.69 1.93 2.51 2.69 1.46 1.22 1.87 2.39 1.90 1.76 1.73 1.69 1.71 1.63 1.52 1.44 1.39 1.39 1.39 1.59 1.78 1.82 1.97 1.89 1.75 1.71 1.83 1.86 1.80 1.67 1.60 1.66 1.82 1.83 1.85 1.71 1.65 1.86 1.90 1.84 1.83 1.83
1.28 1.48 1.84 2.15 2.49 2.07 1.37 1.39 1.55 1.57 1.61 1.50 1.47 1.36 1.28 1.30 1.30 1.33 1.38 1.42 1.40 1.50 1.65 1.71 1.77 1.72 1.65 1.67 1.79 1.89 1.80 1.65 1.71 1.83 1.90 1.94 1.84 1.82 1.80 1.87 1.92 1.84 1.84 1.77
1.23 0.99 1.30 1.74 1.76 1.42 1.23 1.20 1.21 1.23 1.36 1.32 1.24 1.23 1.10 1.17 1.24 1.32 1.38 1.48 1.48 1.47 1.53 1.62 1.69 1.63 1.57 1.55 1.56 1.62 1.59 1.55 1.72 1.91 1.90 1.92 1.93 1.90 1.88 1.87 1.80 1.75 1.70 1.66
1.22 1.21 1.49 1.76 1.57 1.34 1.15 1.01 1.02 1.11 1.11 1.11 1.17 1.23 1.20 1.23 1.30 1.28 1.24 1.32 1.39 1.41 1.46 1.52 1.61 1.64 1.50 1.40 1.37 1.38 1.46 1.59 1.78 1.82 1.77 1.78 1.81 1.81 1.81 1.70 1.61 1.61 1.54 1.43
1.22 1.43 1.73 1.82 1.51 1.58 1.40 1.05 0.96 1.16 1.25 1.15 1.14 1.19 1.14 1.13 1.20 1.25 1.31 1.31 1.36 1.40 1.44 1.52 1.50 1.47 1.38 1.26 1.22 1.27 1.36 1.46 1.63 1.63 1.60 1.59 1.67 1.70 1.63 1.60 1.47 1.37 1.27 1.28